Flag for Egypt Weather past 2 weeks in Al Jizah, Egypt

Now
77 °F

Clear.


Feels Like: 79 °F
Forecast: 71 / 95 °F
Wind: 6 mph from Northeast

Location: Cairo Airport

Current Time: Sep 2, 2014 at 2:56:13 AM

Latest Report: Sep 2, 2014 at 2:30 AM


Visibility: 10 mi

Pressure: 29.80 "Hg

Humidity: 69%

Dew point: 66 °F

Location of Al JizahLocation

Historic Weather in Al Jizah — Graph

°F

Al Jizah temperature yesterday

Maximum temperature yesterday: 91 °F (at 2:00 PM)
Minimum temperature yesterday: 75 °F (at 5:00 AM)
Average temperature yesterday: 83 °F

Past Weeks' High & Low Weather Summary

 TemperatureHumidityPressure
High100 °F (Aug 24, 4:00 PM)89% (Aug 22, 7:00 AM)29.98 "Hg (Aug 22, 7:00 AM)
Low73 °F (Aug 29, 7:00 AM)18% (Aug 26, 4:30 PM)29.68 "Hg (Aug 18, 4:30 AM)
Average85 °F57%29.82 "Hg
* Reported Aug 18 3:30 AM — Sep 2 2:00 AM, Al Jizah, Weather by CustomWeather, © 2014

Note: Actual official high and low records may vary slightly from our data, if they occured in-between our weather recording intervals... More about our weather records

Advertising

Al Jizah weather history for previous 24 hours

 ConditionsComfort  
Time TempWeatherWind HumidityBarometerVisibility
2:00 AM
Sep 2
77 °FClear.7 mph69%29.80 "Hg10 mi
1:30 AM79 °FClear.8 mph65%29.83 "Hg10 mi
1:00 AM79 °FClear.7 mph65%29.83 "Hg10 mi
12:30 AM79 °FClear.8 mph65%29.83 "Hg10 mi
12:00 AM81 °FClear.6 mph62%29.83 "Hg10 mi
11:30 PM
Sep 1
81 °FClear.8 mph62%29.83 "Hg10 mi
11:00 PM82 °FClear.7 mph58%29.83 "Hg10 mi
10:30 PM82 °FClear.7 mph55%29.83 "Hg10 mi
10:00 PM82 °FClear.7 mph55%29.83 "Hg10 mi
9:30 PM84 °FClear.8 mph51%29.83 "Hg10 mi
9:00 PM86 °FClear.10 mph49%29.83 "Hg10 mi
8:30 PM86 °FPassing clouds.9 mph49%29.80 "HgN/A
8:00 PM88 °FPassing clouds.9 mph33%29.77 "HgN/A
7:30 PM88 °FPassing clouds.9 mph33%29.77 "HgN/A
7:00 PM90 °FPassing clouds.9 mph33%29.77 "HgN/A
6:30 PM90 °FPassing clouds.8 mph36%29.77 "HgN/A
6:00 PM91 °FPassing clouds.7 mph34%29.77 "HgN/A
5:30 PM91 °FSunny.9 mph32%29.77 "Hg10 mi
5:00 PM91 °FSunny.8 mph32%29.77 "Hg10 mi
4:30 PM91 °FScattered clouds.12 mph30%29.77 "HgN/A
4:00 PM91 °FPassing clouds.9 mph28%29.77 "HgN/A
3:30 PM91 °FPassing clouds.12 mph34%29.80 "HgN/A
3:00 PM91 °FPassing clouds.6 mph38%29.80 "HgN/A
2:30 PM90 °FSunny.7 mph38%29.80 "Hg10 mi
2:00 PM91 °FSunny.7 mph36%29.80 "Hg10 mi
1:30 PM88 °FSunny.7 mph43%29.83 "Hg10 mi
1:00 PM88 °FSunny.6 mph43%29.83 "Hg10 mi
12:30 PM86 °FSunny.3 mph46%29.83 "Hg10 mi
12:00 PM86 °FSunny.6 mph52%29.86 "Hg10 mi
11:30 AM84 °FSunny.3 mph51%29.86 "Hg10 mi
11:00 AM82 °FPassing clouds.5 mph58%29.86 "HgN/A
10:30 AM82 °FScattered clouds.6 mph58%29.86 "HgN/A
10:00 AM81 °FScattered clouds.3 mph62%29.86 "HgN/A
9:30 AM79 °FScattered clouds.6 mph65%29.86 "HgN/A
9:00 AM79 °FScattered clouds.No wind65%29.86 "HgN/A
8:30 AM77 °FSunny.6 mph69%29.86 "Hg10 mi
8:00 AM77 °FSunny.6 mph69%29.83 "Hg10 mi
7:30 AM77 °FSunny.6 mph74%29.83 "Hg10 mi
7:00 AM75 °FSunny.6 mph78%29.83 "Hg10 mi
6:30 AM75 °FSunny.No wind78%29.83 "Hg10 mi
6:00 AM75 °FClear.No wind78%29.83 "Hg10 mi
5:30 AM75 °FClear.6 mph78%29.83 "Hg10 mi
5:00 AM75 °FClear.6 mph78%29.83 "Hg10 mi
4:30 AM77 °FClear.7 mph74%29.83 "Hg10 mi
4:00 AM77 °FClear.6 mph74%29.83 "Hg10 mi
3:30 AM77 °FClear.7 mph69%29.83 "Hg10 mi
3:00 AM77 °FClear.7 mph74%29.83 "Hg10 mi
2:00 AM77 °FClear.7 mph74%29.83 "Hg10 mi
Weather by CustomWeather, © 2014

See weather overviewHow to use our weather pages